Location: Kellogg
(38.0159°N, 90.0546°W)
Time: 22:21:31
(UTC+00:00)

Vanguard 2 - Pass Details

Date: 19 September 2024
Orbit: 552 x 2910 km, 32.9° (Epoch: 09 October)

Event Time Altitude Azimuth Distance (km) Brightness Sun altitude
Rises 07:29:09 0° 225° (SW) 2,706 - -45.0°
Reaches altitude 10° 07:31:37 10° 209° (SSW) 1,830 - -44.7°
Maximum altitude 07:34:48 23° 156° (SSE) 1,304 - -44.4°
Drops below altitude 10° 07:38:32 10° 104° (ESE) 2,178 - -43.9°
Exits shadow 07:40:42 - 93° (E) 2,976 10.9 -43.7°
Sets 07:41:47 0° 90° (E) 3,388 11.2 -43.5°
